Satellite: HUBBLE
Catalog number: 20580
Epoch time: 07150.77813779
Element set: 886
Inclination: 028.4691 deg
RA of node: 303.6406 deg
Eccentricity: 0.0003578
Arg of perigee: 269.6384 deg
Mean anomaly: 090.3794 deg
Mean motion: 15.00245448 rev/day
Decay rate: 4.77e-06 rev/day^2
Epoch rev: 73734
Checksum: 328
Satellite: UARS
Catalog number: 21701
Epoch time: 07150.97582338
Element set: 0092
Inclination: 056.9766 deg
RA of node: 028.6268 deg
Eccentricity: 0.0096537
Arg of perigee: 155.6754 deg
Mean anomaly: 204.8905 deg
Mean motion: 15.48051761 rev/day
Decay rate: 3.952e-05 rev/day^2
Epoch rev: 86308
Checksum: 332
Satellite: PO-34
Catalog number: 25520
Epoch time: 07150.54412151
Element set: 0753
Inclination: 028.4600 deg
RA of node: 226.8323 deg
Eccentricity: 0.0005274
Arg of perigee: 069.1428 deg
Mean anomaly: 290.9729 deg
Mean motion: 15.17001396 rev/day
Decay rate: 5.10e-06 rev/day^2
Epoch rev: 47484
Checksum: 280
Satellite: ISS
Catalog number: 25544
Epoch time: 07151.77340713
Element set: 309
Inclination: 051.6319 deg
RA of node: 188.7310 deg
Eccentricity: 0.0007920
Arg of perigee: 261.8727 deg
Mean anomaly: 098.1920 deg
Mean motion: 15.78061975 rev/day
Decay rate: 8.0e-08 rev/day^2
Epoch rev: 48818
Checksum: 308
Satellite: OO-38
Catalog number: 26063
Epoch time: 07150.74820831
Element set: 0923
Inclination: 100.2267 deg
RA of node: 150.1493 deg
Eccentricity: 0.0036551
Arg of perigee: 208.4515 deg
Mean anomaly: 151.4651 deg
Mean motion: 14.35806483 rev/day
Decay rate: -8.0e-08 rev/day^2
Epoch rev: 38455
Checksum: 285
Satellite: UWE-1
Catalog number: 28892
Epoch time: 07150.72965570
Element set: 0760
Inclination: 098.1338 deg
RA of node: 047.7188 deg
Eccentricity: 0.0017497
Arg of perigee: 163.5033 deg
Mean anomaly: 196.6747 deg
Mean motion: 14.59506646 rev/day
Decay rate: 8.8e-07 rev/day^2
Epoch rev: 08466
Checksum: 350
Satellite: CO-58
Catalog number: 28895
Epoch time: 07150.70889146
Element set: 0740
Inclination: 098.1382 deg
RA of node: 047.9041 deg
Eccentricity: 0.0018008
Arg of perigee: 163.4453 deg
Mean anomaly: 196.7360 deg
Mean motion: 14.59554492 rev/day
Decay rate: 9.5e-07 rev/day^2
Epoch rev: 08454
Checksum: 337
Satellite: NCUBE2
Catalog number: 28897
Epoch time: 07150.64854644
Element set: 0266
Inclination: 098.1338 deg
RA of node: 047.8027 deg
Eccentricity: 0.0017115
Arg of perigee: 165.5096 deg
Mean anomaly: 194.6621 deg
Mean motion: 14.59716887 rev/day
Decay rate: 1.76e-06 rev/day^2
Epoch rev: 07681
Checksum: 341
Satellite: NMARS
Catalog number: 29662
Epoch time: 07126.39603970
Element set: 263
Inclination: 051.6121 deg
RA of node: 302.3682 deg
Eccentricity: 0.0004459
Arg of perigee: 252.1654 deg
Mean anomaly: 110.7411 deg
Mean motion: 16.47981436 rev/day
Decay rate: 7.031946e-02 rev/day^2
Epoch rev: 2165
Checksum: 289
Satellite: FCAL
Catalog number: 29667
Epoch time: 07150.58093793
Element set: 0162
Inclination: 051.6364 deg
RA of node: 186.5902 deg
Eccentricity: 0.0013472
Arg of perigee: 278.9689 deg
Mean anomaly: 080.9791 deg
Mean motion: 15.87596270 rev/day
Decay rate: 1.2940e-04 rev/day^2
Epoch rev: 02520
Checksum: 334
Satellite: FALCON
Catalog number: 30776
Epoch time: 07151.84307726
Element set: 63
Inclination: 035.4350 deg
RA of node: 311.7423 deg
Eccentricity: 0.0002101
Arg of perigee: 322.4104 deg
Mean anomaly: 037.6465 deg
Mean motion: 15.02713074 rev/day
Decay rate: 3.15e-06 rev/day^2
Epoch rev: 1259
Checksum: 240
Satellite: MAST
Catalog number: 31126
Epoch time: 07150.77091565
Element set: 0045
Inclination: 098.0837 deg
RA of node: 224.4972 deg
Eccentricity: 0.0095978
Arg of perigee: 079.5160 deg
Mean anomaly: 281.6808 deg
Mean motion: 14.53343297 rev/day
Decay rate: 3.95e-06 rev/day^2
Epoch rev: 00632
Checksum: 317
Satellite: CAPE1
Catalog number: 31130
Epoch time: 07150.88439963
Element set: 32
Inclination: 098.0843 deg
RA of node: 224.5048 deg
Eccentricity: 0.0104075
Arg of perigee: 079.5549 deg
Mean anomaly: 281.7338 deg
Mean motion: 14.51853960 rev/day
Decay rate: -3.5e-07 rev/day^2
Epoch rev: 610
Checksum: 290
/EX
1
0